Location: Mauries
(43.6188°N, 0.3322°W)
Time: 05:09:02
(UTC+00:00)

Meteor 2-13 Rocket - Pass Details

Date: 14 January 2026
Orbit: 935 x 958 km, 82.5° (Epoch: 14 February)

Event Time Altitude Azimuth Distance (km) Brightness Sun altitude
Rises 05:26:27 0° 351° (N) 3,637 7.3 -22.3°
Reaches altitude 10° 05:28:58 10° 352° (N) 2,684 6.6 -21.8°
Maximum altitude 05:35:07 86° 81° (E) 954 4.4 -20.7°
Drops below altitude 10° 05:41:12 10° 172° (S) 2,650 7.0 -19.6°
Sets 05:43:40 0° 173° (S) 3,587 7.7 -19.2°
